F1IRU-13 Weather Reports


time (UTC)temp
C
wind
direction
speed
KPH
gust
KPH
rain 1hr
cm
rain 24hr
cm
rain mn
cm
humidity
%
barometer
mb
20260504231720 13 325 0.0 6.4 0.00 0.38 0.00 91 1010.1
20260504231218 13 0 0.0 3.2 0.00 0.41 0.00 91 1010.2
20260504230720 13 0 0.0 4.8 0.00 0.41 0.00 91 1010.3
20260504230214 13 5 0.0 4.8 0.00 0.41 0.00 91 1010.3
20260504225708 13 26 0.0 8.0 0.00 0.41 0.00 91 1010.2
20260504225203 13 27 1.6 8.0 0.00 0.41 0.00 91 1010.3
20260504224656 13 12 0.0 8.0 0.00 0.41 0.00 91 1010.3
20260504224156 13 22 0.0 6.4 0.00 0.41 0.00 91 1010.3
20260504223648 13 41 1.6 4.8 0.00 0.41 0.00 91 1010.4
20260504223147 13 19 1.6 4.8 0.00 0.41 0.00 90 1010.4
20260504222646 13 9 0.0 4.8 0.00 0.41 0.00 90 1010.4
20260504222416 13 5 0.0 4.8 0.00 0.41 0.00 90 1010.4
20260504221644 13 22 0.0 4.8 0.00 0.41 0.00 90 1010.4
20260504221120 13 348 0.0 4.8 0.00 0.41 0.00 90 1010.4
20260504220620 13 0 0.0 4.8 0.00 0.41 0.00 90 1010.5
20260504220122 13 5 0.0 0.0 0.00 0.41 0.00 90 1010.5
20260504215612 13 5 0.0 3.2 0.00 0.41 0.41 90 1010.5
20260504215336 13 5 0.0 3.2 0.00 0.41 0.41 90 1010.6
20260504214556 13 5 0.0 0.0 0.00 0.41 0.41 90 1010.6
20260504214048 13 5 0.0 0.0 0.00 0.43 0.41 90 1010.6
20260504213522 13 5 0.0 0.0 0.00 0.43 0.41 90 1010.7
20260504213246 13 5 0.0 0.0 0.03 0.43 0.41 90 1010.6
20260504212456 13 5 0.0 0.0 0.03 0.43 0.41 90 1010.7
20260504211946 13 26 0.0 0.0 0.03 0.43 0.41 90 1010.7
20260504211710 13 26 0.0 0.0 0.03 0.43 0.41 90 1010.8
20260504210915 13 26 0.0 0.0 0.03 0.43 0.41 90 1010.9
20260504210417 13 26 0.0 0.0 0.03 0.43 0.41 90 1010.9
20260504205917 13 26 0.0 0.0 0.03 0.43 0.41 90 1010.8
20260504205408 13 26 0.0 0.0 0.03 0.43 0.41 90 1010.8
20260504204832 13 26 0.0 0.0 0.03 0.43 0.41 89 1010.9
20260504204318 13 26 0.0 0.0 0.03 0.43 0.41 89 1010.9
20260504203816 13 26 0.0 0.0 0.03 0.43 0.41 89 1011.0
20260504203511 13 26 0.0 0.0 0.03 0.43 0.41 89 1011.0
20260504202741 13 26 0.0 0.0 0.00 0.41 0.38 89 1010.9
20260504202238 13 26 0.0 0.0 0.00 0.41 0.38 89 1010.9
20260504201721 13 26 0.0 0.0 0.00 0.41 0.38 89 1010.7
20260504201448 13 26 0.0 0.0 0.00 0.41 0.38 88 1010.8
20260504200710 13 22 0.0 3.2 0.00 0.43 0.38 88 1010.8
20260504200427 13 22 0.0 3.2 0.00 0.43 0.38 88 1010.8
20260504195656 13 22 0.0 3.2 0.00 0.43 0.38 88 1010.8
20260504195150 13 23 0.0 6.4 0.00 0.43 0.38 88 1010.8
20260504194621 13 23 1.6 6.4 0.00 0.43 0.38 88 1010.6
20260504194121 13 50 0.0 6.4 0.00 0.43 0.38 89 1010.4
20260504193614 13 50 0.0 0.0 0.00 0.43 0.38 89 1010.5
20260504193114 14 50 0.0 3.2 0.00 0.43 0.38 89 1010.6
20260504192612 14 50 0.0 3.2 0.00 0.43 0.38 89 1010.4
20260504192102 14 50 0.0 0.0 0.00 0.43 0.38 89 1010.2
20260504191554 14 50 0.0 1.6 0.00 0.43 0.38 89 1010.1
20260504191032 14 50 0.0 1.6 0.03 0.43 0.38 90 1010.2
20260504190520 14 50 0.0 0.0 0.03 0.43 0.38 90 1010.5
20260504190020 14 50 0.0 0.0 0.03 0.43 0.38 90 1010.5
20260504185518 14 50 0.0 4.8 0.03 0.43 0.38 90 1010.3
20260504184507 14 50 0.0 4.8 0.03 0.43 0.38 90 1010.3
20260504183958 14 50 0.0 4.8 0.03 0.43 0.38 90 1010.3
20260504183454 15 50 0.0 4.8 0.03 0.43 0.38 89 1010.1
20260504182944 15 52 0.0 3.2 0.03 0.43 0.38 89 1010.2
20260504182434 15 55 1.6 6.4 0.03 0.43 0.38 88 1010.2
20260504181923 15 5 1.6 6.4 0.03 0.43 0.38 88 1010.3
20260504181420 15 74 1.6 8.0 0.03 0.43 0.38 88 1010.3
20260504180920 15 78 3.2 9.7 0.00 0.43 0.36 88 1010.4
20260504180420 15 79 4.8 14.5 0.00 0.43 0.36 88 1010.4
20260504175918 15 62 3.2 14.5 0.00 0.43 0.36 88 1010.5
20260504175416 15 62 4.8 14.5 0.00 0.43 0.36 88 1010.4
20260504174905 15 61 4.8 14.5 0.00 0.43 0.36 88 1010.4
20260504174400 15 65 4.8 16.1 0.00 0.43 0.36 88 1010.4
20260504173901 15 68 6.4 16.1 0.03 0.43 0.36 88 1010.5
20260504173356 15 64 4.8 16.1 0.03 0.43 0.36 88 1010.6
20260504172849 15 65 3.2 11.3 0.03 0.43 0.36 89 1010.5
20260504172346 16 66 3.2 9.7 0.03 0.43 0.36 89 1010.4
20260504172113 16 46 3.2 11.3 0.03 0.43 0.36 88 1010.5
20260504171609 16 68 3.2 11.3 0.03 0.43 0.36 89 1010.3
20260504170828 16 53 1.6 11.3 0.03 0.43 0.36 89 1010.3
20260504170328 16 59 1.6 11.3 0.03 0.43 0.36 89 1010.4
20260504160220 16 62 3.2 9.7 0.03 0.43 0.33 89 1010.3
20260504150911 15 61 3.2 11.3 0.00 0.43 0.33 91 1010.4
20260504150141 15 49 1.6 8.0 0.00 0.43 0.33 91 1010.5
20260504141117 15 35 1.6 11.3 0.03 0.46 0.33 92 1010.7
20260504140617 15 38 3.2 9.7 0.03 0.46 0.33 92 1010.7
20260504140115 15 15 3.2 9.7 0.03 0.48 0.33 91 1010.9
20260504130654 15 44 3.2 11.3 0.03 0.48 0.30 91 1010.9
20260504110248 15 78 0.0 6.4 0.03 0.48 0.25 93 1011.4
20260504100110 15 333 0.0 0.0 0.03 0.48 0.23 92 1011.6
20260504081706 15 66 0.0 0.0 0.03 0.48 0.20 94 1011.4
20260504081153 14 66 0.0 0.0 0.03 0.48 0.20 94 1011.4
20260504080650 14 66 0.0 0.0 0.03 0.51 0.20 94 1011.5
20260504080142 14 66 0.0 0.0 0.03 0.51 0.20 94 1011.5
20260504060228 13 55 0.0 0.0 0.03 0.51 0.15 94 1011.0
20260504050517 13 264 0.0 0.0 0.03 0.51 0.15 94 1010.9
20260504050017 13 264 0.0 0.0 0.03 0.51 0.15 94 1011.1
20260504045748 13 264 0.0 0.0 0.03 0.51 0.15 94 1010.8
20260504045008 13 264 0.0 0.0 0.03 0.53 0.15 94 1010.9
20260504044502 13 264 0.0 0.0 0.03 0.53 0.15 94 1010.8
20260504043952 13 264 0.0 0.0 0.03 0.53 0.15 94 1010.8
20260504043712 13 264 0.0 0.0 0.03 0.53 0.15 94 1010.9
20260504042936 13 264 0.0 0.0 0.05 0.53 0.15 94 1010.8
20260504042421 13 264 0.0 0.0 0.03 0.51 0.13 94 1010.9
20260504041920 13 264 0.0 0.0 0.03 0.51 0.13 94 1010.9
20260504041416 13 264 0.0 0.0 0.03 0.53 0.13 94 1010.9
20260504040915 13 264 0.0 0.0 0.03 0.53 0.13 94 1010.9
20260504040357 13 264 0.0 0.0 0.03 0.53 0.13 94 1010.9
20260504035822 13 264 0.0 0.0 0.03 0.53 0.13 94 1010.9
20260504035259 13 264 0.0 0.0 0.03 0.53 0.13 94 1011.0
20260504034949 13 264 0.0 0.0 0.03 0.53 0.13 94 1011.1
20260504034216 13 264 0.0 0.0 0.05 0.56 0.13 94 1011.1
20260504033716 13 264 0.0 0.0 0.05 0.56 0.13 94 1011.0
20260504033213 13 264 0.0 0.0 0.03 0.53 0.10 94 1011.0
20260504032707 13 264 0.0 0.0 0.03 0.53 0.10 94 1011.0
20260504032157 13 264 0.0 0.0 0.03 0.53 0.10 94 1011.1
20260504031631 13 264 0.0 0.0 0.03 0.53 0.10 94 1011.1
20260504031352 13 264 0.0 0.0 0.03 0.56 0.10 94 1011.0
20260504030605 13 264 0.0 0.0 0.03 0.56 0.10 94 1011.0
20260504030021 13 264 0.0 0.0 0.03 0.56 0.10 93 1011.0
20260504025451 13 264 0.0 0.0 0.03 0.56 0.10 93 1011.1
20260504024944 13 264 0.0 0.0 0.05 0.56 0.10 93 1011.2
20260504024652 13 264 0.0 0.0 0.03 0.56 0.08 93 1011.2
20260504023921 13 264 0.0 0.0 0.03 0.56 0.08 93 1011.1
20260504023417 13 264 0.0 0.0 0.03 0.56 0.08 93 1011.1
20260504022915 13 264 0.0 0.0 0.03 0.56 0.08 94 1011.1
20260504022407 13 264 0.0 0.0 0.03 0.56 0.08 94 1011.2
20260504021900 13 264 0.0 0.0 0.03 0.56 0.08 93 1011.2
20260504021323 13 264 0.0 0.0 0.03 0.56 0.08 93 1011.2
20260504020821 13 264 0.0 0.0 0.03 0.56 0.08 94 1011.1
20260504020550 13 264 0.0 0.0 0.05 0.58 0.08 94 1011.2
20260504015806 13 264 0.0 0.0 0.05 0.58 0.08 94 1011.3
20260504015219 13 264 0.0 0.0 0.03 0.56 0.08 94 1011.3
20260504014719 13 264 0.0 0.0 0.03 0.56 0.05 94 1011.2
20260504014211 13 264 0.0 0.0 0.03 0.56 0.05 94 1011.4
20260504013650 13 264 0.0 0.0 0.03 0.58 0.05 93 1011.4
20260504013151 13 264 0.0 0.0 0.03 0.58 0.05 93 1011.3
20260504012631 13 264 0.0 0.0 0.03 0.58 0.05 93 1011.4
20260504012117 14 264 0.0 0.0 0.03 0.58 0.05 93 1011.3
20260504011813 14 264 0.0 0.0 0.05 0.58 0.05 93 1011.5
20260504011259 14 264 0.0 0.0 0.05 0.58 0.05 93 1011.6
20260504010519 14 264 0.0 0.0 0.03 0.58 0.05 93 1011.6
20260504010019 14 264 0.0 0.0 0.03 0.58 0.05 93 1011.6
20260504005747 14 264 0.0 0.0 0.03 0.58 0.05 93 1011.6
20260504005236 14 264 0.0 1.6 0.03 0.58 0.05 93 1011.7
20260504004444 14 261 0.0 1.6 0.03 0.58 0.05 93 1011.6
20260504003941 14 282 0.0 0.0 0.03 0.58 0.05 93 1011.6
20260504003657 14 284 0.0 0.0 0.03 0.58 0.05 93 1011.6
20260504002919 14 284 0.0 0.0 0.03 0.61 0.05 93 1011.7
20260504002418 14 284 0.0 0.0 0.03 0.61 0.05 93 1011.7
20260504001916 14 284 0.0 0.0 0.03 0.61 0.05 93 1011.6
20260504001356 14 284 0.0 0.0 0.03 0.58 0.03 93 1011.7
20260504000854 15 284 0.0 0.0 0.03 0.58 0.03 92 1011.7
20260504000333 15 278 0.0 9.7 0.03 0.58 0.03 92 1011.9
20260503235832 15 279 0.0 9.7 0.03 0.58 0.03 92 1012.0
20260503235323 15 271 0.0 0.0 0.03 0.61 0.03 93 1011.9
20260503235047 15 271 0.0 0.0 0.03 0.61 0.03 93 1011.8
20260503234306 15 273 0.0 0.0 0.03 0.61 0.03 93 1012.0
20260503233719 15 273 0.0 0.0 0.03 0.61 0.03 93 1011.9
20260503233222 15 273 0.0 0.0 0.03 0.61 0.03 93 1011.9
20260503232718 15 273 0.0 0.0 0.03 0.61 0.03 93 1012.0